SCOUT A DEB, 3122

Orbit data source: Space-Track

SCOUT A DEB, 3122 is space debris in LEO originally from a launch on Mon, 25 Sep 1967 UTC launched from the Air Force Western Test Range (AFWTR). Debris objects in space refer to the collection of defunct objects orbiting the Earth. Examples of debris include non-operational satellites, rocket bodies, and fragments generated from explosions, collisions, or faulty payload assembly.

Loading next visibility...
Identifier
3122, 1967-092D
Orbit
LEO
Country
Flag of USUS
Related business
Manufacturer
Unknown
Mission
Spacecraft
Bus & Motor
Unknown
Mass
Unknown
Launch date (UTC)
1967-09-25 (59 years ago)
Launch vehicle
Unknown
Launch site
Air Force Western Test Range (AFWTR)
Object type
Payload
Rocket body
Debris
Shape & HBR
Unknown shape, 0.1 m
Radar Cross Section
Medium (>0.1 m² and <1 m²)

Expand to show TLE details & history
Last TLE update: 3 days ago

TLE from 3 days ago
0 SCOUT A DEB
1 03122U 67092D   26175.22733013  .00000194  00000-0  38064-3 0  9992
2 03122  89.0593  87.5680 0184316 205.9053 285.3275 13.26000211583953
Epoch: 2026-06-24T05:27Z
TLE epoch observation values (Epoch: 2026-06-24T05:27:21.323Z)
Latitude
50.90009°
Longitude
-87.81022°
Altitude
1,135.763 km
Speed
7.306 km/s
True Right ascension
17h 45m 39s
True Declination
50° 44' 25"
Sunlit
Object was in daylight at epoch
Visualization orbit readout
Latitude
Unknown
Longitude
Unknown
Altitude
Unknown
Speed
Unknown
Apparent Right ascension
Unknown
Apparent Declination
Unknown
Sunlit
N/A
Visualization observer readout
Local Sidereal Time
17:10:17
Azimuth
Unknown
Elevation
Unknown
Doppler factor
Unknown
Orbital elements
Apogee altitude
1,297.895 km
Perigee altitude
1,020.053 km
Semi-major axis
7,537.111 km
Eccentricity
0.01843
Inclination
89.0593°
RAAN
87.568°
Arg. of periapsis
205.9053°
True anomaly
283.27848°
Mean anomaly
285.3275°
Eccentric anomaly
284.30419°
Mean motion
3.31693 °/min
Orbital period
108.53 mins
BSTAR
0.00038064
Loading maneuver chart data...
Computing Atmospheric mass density...
Loading historical data...
Loading historical data...
Loading historical data...
Loading historical data...
Loading historical data...
Loading historical data...
Loading historical data...

Documentation

Showing up to 5 results
|